Greenville, SC

6:33 PM EST on February 27, 2017 (GMT -0500)
Greenville Downtown

Weather History for KGMU - December, 2011

Change the Weather History Date:

Friday, December 30, 2011

  Actual Average Record
Temperature  
Mean Temperature 44 °F -  
Max Temperature 52 °F 49 °F 69 °F (1996)
Min Temperature 36 °F 32 °F 19 °F (2000)
Degree Days  
Heating Degree Days 21    
Moisture  
Dew Point 39 °F    
Average Humidity 80    
Maximum Humidity 97    
Minimum Humidity 62    
Precipitation  
Precipitation 0.00 in - - ()
Sea Level Pressure  
Sea Level Pressure 30.02 in    
Wind  
Wind Speed 5 mph (WSW)    
Max Wind Speed 15 mph    
Max Gust Speed -    
Visibility 9 miles    
Events Rain    
Averages and records for this station are not official NWS values.
T = Trace of Precipitation, MM = Missing Value Source: NWS Daily Summary

Daily Weather History Graph

Daily Weather History Graph

Search for Another Location

Airport or City:

Trip Planner

Search our weather history database for the weather conditions in past years. The results will help you decide how hot, cold, wet, or windy it might be!

Date:

Astronomy

Dec. 30, 2011 Rise Set
Actual Time 7:36 AM EST 5:27 PM EST
Civil Twilight 7:08 AM EST 5:55 PM EST
Nautical Twilight 6:36 AM EST 6:26 PM EST
Astronomical Twilight 6:06 AM EST 6:57 PM EST
Moon 11:10 AM EST (12/30) 11:44 PM EST (12/30)
Length of Visible Light 10h 46m
Length of Day
9h 50m
Waxing Crescent, 35% of the Moon is Illuminated
Dec 30
Waxing Crescent
Jan 1
First Quarter
Jan 9
Full
Jan 16
Last Quarter
Jan 23
New

Hourly Weather History & Observations

Time (EST) Temp. Windchill Dew Point Humidity Pressure Visibility Wind Dir Wind Speed Gust Speed Precip Events Conditions
12:53 AM 42.1 °F 39.2 °F 30.0 °F 62% 30.05 in 10.0 mi SW 4.6 mph - N/A   Clear
1:53 AM 39.0 °F 36.8 °F 30.0 °F 70% 30.05 in 10.0 mi WSW 3.5 mph - N/A   Clear
2:53 AM 37.0 °F - 30.0 °F 76% 30.05 in 10.0 mi Calm Calm - N/A   Clear
3:53 AM 36.0 °F - 30.0 °F 79% 30.05 in 10.0 mi Calm Calm - N/A   Clear
4:53 AM 37.9 °F 33.5 °F 30.9 °F 76% 30.06 in 10.0 mi SW 5.8 mph - N/A   Clear
5:53 AM 37.0 °F 33.3 °F 30.9 °F 79% 30.06 in 10.0 mi SW 4.6 mph - N/A   Clear
6:53 AM 37.0 °F 33.3 °F 30.9 °F 79% 30.08 in 10.0 mi SW 4.6 mph - N/A   Clear
7:53 AM 36.0 °F 30.3 °F 30.9 °F 82% 30.09 in 10.0 mi SW 6.9 mph - N/A   Clear
8:53 AM 39.9 °F 35.8 °F 33.1 °F 77% 30.09 in 10.0 mi SW 5.8 mph - N/A   Clear
9:53 AM 46.9 °F - 35.1 °F 63% 30.09 in 10.0 mi WSW 8.1 mph - N/A   Clear
11:29 AM 51.8 °F - 39.2 °F 62% 30.06 in 10.0 mi SW 9.2 mph - N/A   Overcast
11:53 AM 52.0 °F - 41.0 °F 66% 30.06 in 10.0 mi WSW 9.2 mph - N/A   Overcast
12:53 PM 52.0 °F - 43.0 °F 71% 30.03 in 10.0 mi SW 8.1 mph - N/A   Overcast
1:53 PM 51.1 °F - 44.1 °F 77% 30.01 in 10.0 mi WSW 15.0 mph - 0.00 in   Overcast
2:53 PM 50.0 °F - 45.0 °F 83% 30.01 in 8.0 mi WSW 5.8 mph - 0.00 in Rain Light Rain
3:53 PM 50.0 °F - 45.0 °F 83% 30.00 in 10.0 mi WSW 4.6 mph - 0.00 in   Overcast
4:53 PM 51.1 °F - 45.0 °F 80% 29.97 in 10.0 mi South 6.9 mph - N/A   Scattered Clouds
5:42 PM 48.2 °F - 44.6 °F 87% 29.96 in 10.0 mi West 4.6 mph - N/A   Mostly Cloudy
5:53 PM 48.9 °F - 45.0 °F 86% 29.98 in 10.0 mi WNW 3.5 mph - N/A   Mostly Cloudy
6:04 PM 48.2 °F - 44.6 °F 87% 29.97 in 10.0 mi WNW 3.5 mph - N/A   Mostly Cloudy
6:53 PM 48.9 °F - 45.0 °F 86% 29.99 in 9.0 mi West 3.5 mph - N/A   Overcast
7:53 PM 46.9 °F - 45.0 °F 93% 29.99 in 6.0 mi West 3.5 mph - N/A   Scattered Clouds
8:53 PM 48.0 °F - 45.0 °F 89% 29.99 in 5.0 mi Calm Calm - N/A   Scattered Clouds
9:53 PM 48.0 °F - 45.0 °F 89% 29.98 in 4.0 mi Calm Calm - N/A   Mostly Cloudy
10:53 PM 46.0 °F - 45.0 °F 96% 29.97 in 4.0 mi Calm Calm - N/A   Mostly Cloudy
11:31 PM 46.4 °F - 44.6 °F 93% 29.94 in 2.5 mi Calm Calm - N/A   Partly Cloudy
11:53 PM 45.0 °F 42.6 °F 44.1 °F 97% 29.94 in 4.0 mi South 4.6 mph - N/A   Clear